N260QS TNCM-KPBI

Flight info

Callsign N260QS
Flight time N/A
Altitude 40000
Route MODOR2 JUICE B520 STT RTE6 SJU DCT ACONY Y280 SAPPO Y399 ZQA BR54V ISAAC MAHHI3
Aircraft CL60/M-SBDE1E2E3FGHIJ1J3J4J7P2RWXYZ/LB1D1

Departure

Time N/A
Airport Princess Juliana International Airport (TNCM)

Arrival

Time 2026-04-21 22:24
Airport Palm Beach International Airport (KPBI)
Time Latitude Longitude Altitude Speed Heading
2026-04-21 22:04 26.27906 -79.37230 22006 ft 340 kts 301°
2026-04-21 22:04 26.29166 -79.39455 21554 ft 339 kts 302°
2026-04-21 22:04 26.30370 -79.41584 21115 ft 338 kts 302°
2026-04-21 22:05 26.31622 -79.43800 20665 ft 338 kts 302°
2026-04-21 22:05 26.32881 -79.46027 20216 ft 337 kts 302°
2026-04-21 22:05 26.34128 -79.48236 19766 ft 337 kts 302°
2026-04-21 22:05 26.35368 -79.50433 19364 ft 335 kts 302°
2026-04-21 22:06 26.36599 -79.52615 19216 ft 334 kts 302°
2026-04-21 22:06 26.37845 -79.54825 19194 ft 335 kts 302°
2026-04-21 22:06 26.39099 -79.57049 19113 ft 339 kts 302°
2026-04-21 22:06 26.40351 -79.59273 18663 ft 341 kts 302°
2026-04-21 22:07 26.41612 -79.61513 18163 ft 336 kts 303°
2026-04-21 22:07 26.42832 -79.63683 17668 ft 333 kts 303°
2026-04-21 22:07 26.44061 -79.65868 17145 ft 332 kts 302°
2026-04-21 22:07 26.45291 -79.68059 16620 ft 330 kts 302°
2026-04-21 22:08 26.46493 -79.70199 16081 ft 328 kts 303°
2026-04-21 22:08 26.47707 -79.72360 15527 ft 327 kts 303°
2026-04-21 22:08 26.48918 -79.74518 14976 ft 325 kts 303°
2026-04-21 22:08 26.50081 -79.76645 14438 ft 324 kts 300°
2026-04-21 22:09 26.51108 -79.78909 13879 ft 324 kts 297°
2026-04-21 22:09 26.52080 -79.81145 13309 ft 323 kts 297°
2026-04-21 22:09 26.53055 -79.83384 12741 ft 321 kts 297°
2026-04-21 22:09 26.54030 -79.85622 12144 ft 319 kts 297°
2026-04-21 22:10 26.55004 -79.87859 11554 ft 318 kts 297°
2026-04-21 22:10 26.55968 -79.90073 10964 ft 317 kts 297°
2026-04-21 22:10 26.56927 -79.92275 10362 ft 316 kts 297°
2026-04-21 22:10 26.57882 -79.94476 9764 ft 315 kts 296°
2026-04-21 22:11 26.58506 -79.96783 9191 ft 315 kts 278°
2026-04-21 22:11 26.58629 -79.99184 8709 ft 307 kts 274°
2026-04-21 22:11 26.58685 -80.01553 8244 ft 298 kts 273°
2026-04-21 22:11 26.58739 -80.03816 8010 ft 285 kts 274°
2026-04-21 22:12 26.58784 -80.06010 7977 ft 286 kts 273°
2026-04-21 22:12 26.58838 -80.08254 7934 ft 287 kts 274°
2026-04-21 22:12 26.58886 -80.10474 7612 ft 289 kts 274°
2026-04-21 22:12 26.58936 -80.12713 7237 ft 287 kts 274°
2026-04-21 22:13 26.58986 -80.14951 6865 ft 284 kts 274°
2026-04-21 22:13 26.59036 -80.17143 6493 ft 283 kts 274°
2026-04-21 22:13 26.59090 -80.19347 6116 ft 282 kts 274°
2026-04-21 22:13 26.59144 -80.21511 5750 ft 280 kts 274°
2026-04-21 22:14 26.59198 -80.23698 5358 ft 277 kts 274°
2026-04-21 22:14 26.59250 -80.25802 4965 ft 274 kts 274°
2026-04-21 22:14 26.59302 -80.27930 4530 ft 267 kts 274°
2026-04-21 22:14 26.59347 -80.29973 4162 ft 260 kts 274°
2026-04-21 22:15 26.59389 -80.31946 3818 ft 253 kts 274°
2026-04-21 22:15 26.59427 -80.33845 3587 ft 234 kts 274°
2026-04-21 22:15 26.59463 -80.35606 3388 ft 217 kts 276°
2026-04-21 22:15 26.59919 -80.37096 3171 ft 200 kts 315°
2026-04-21 22:16 26.61041 -80.37816 2975 ft 177 kts
2026-04-21 22:16 26.62144 -80.37411 2966 ft 166 kts 44°
2026-04-21 22:16 26.62928 -80.36459 2986 ft 166 kts 52°
2026-04-21 22:16 26.63674 -80.35445 2975 ft 166 kts 52°
2026-04-21 22:17 26.64404 -80.34442 2970 ft 167 kts 53°
2026-04-21 22:17 26.65140 -80.33435 2970 ft 166 kts 53°
2026-04-21 22:17 26.65867 -80.32439 2976 ft 166 kts 53°
2026-04-21 22:17 26.66610 -80.31423 2971 ft 166 kts 52°
2026-04-21 22:18 26.67334 -80.30429 2974 ft 166 kts 53°
2026-04-21 22:18 26.68063 -80.29431 2970 ft 154 kts 52°
2026-04-21 22:18 26.68711 -80.28529 2969 ft 147 kts 57°
2026-04-21 22:18 26.69030 -80.27461 2867 ft 144 kts 83°
2026-04-21 22:19 26.69001 -80.26378 2708 ft 137 kts 90°
2026-04-21 22:19 26.68940 -80.25313 2525 ft 135 kts 89°
2026-04-21 22:19 26.68894 -80.24288 2378 ft 124 kts 89°
2026-04-21 22:19 26.68853 -80.23351 2209 ft 118 kts 89°
2026-04-21 22:20 26.68815 -80.22459 2051 ft 112 kts 88°
2026-04-21 22:20 26.68780 -80.21581 1907 ft 111 kts 88°
2026-04-21 22:20 26.68745 -80.20731 1770 ft 110 kts 88°
2026-04-21 22:20 26.68709 -80.19863 1627 ft 111 kts 88°
2026-04-21 22:21 26.68672 -80.19008 1484 ft 111 kts 88°
2026-04-21 22:21 26.68635 -80.18143 1342 ft 111 kts 88°
2026-04-21 22:21 26.68598 -80.17277 1198 ft 111 kts 89°
2026-04-21 22:21 26.68557 -80.16420 1057 ft 111 kts 89°
2026-04-21 22:22 26.68519 -80.15553 924 ft 112 kts 88°
2026-04-21 22:22 26.68484 -80.14687 780 ft 111 kts 89°
2026-04-21 22:22 26.68445 -80.13826 620 ft 110 kts 89°
2026-04-21 22:22 26.68400 -80.12942 506 ft 111 kts 89°
2026-04-21 22:23 26.68365 -80.12085 347 ft 114 kts 89°
2026-04-21 22:23 26.68330 -80.11216 193 ft 110 kts 89°
2026-04-21 22:23 26.68298 -80.10375 48 ft 106 kts 88°
2026-04-21 22:23 26.68269 -80.09606 18 ft 86 kts 92°
2026-04-21 22:24 26.68245 -80.09114 17 ft 44 kts 93°
2026-04-21 22:24 26.68230 -80.08888 17 ft 11 kts 128°
2026-04-21 22:24 26.68164 -80.08904 17 ft 12 kts 230°
2026-04-21 22:24 26.68098 -80.08981 17 ft 13 kts 221°
2026-04-21 22:25 26.68048 -80.09037 17 ft 11 kts 227°
2026-04-21 22:25 26.67978 -80.09116 17 ft 15 kts 224°
2026-04-21 22:25 26.67933 -80.09197 18 ft 10 kts 291°
2026-04-21 22:25 26.67978 -80.09251 19 ft 5 kts 311°
2026-04-21 22:26 26.67981 -80.09300 20 ft 9 kts 216°
2026-04-21 22:26 26.67910 -80.09327 19 ft 11 kts 174°
2026-04-21 22:26 26.67892 -80.09278 19 ft 0 kts 94°